sat.trackr.live / text

‹ back to catalog

STARLINK-34758

NORAD 64945 · 2025-158P

PAYLOAD ACTIVE UNKNOWN

§ Identity

Operator
Country
US
Launch date
2025-07-27
Launch site
AFWTR
Launch vehicle
Mass (kg)
RCS (m²)

Purposes: comms

External: N2YO · Heavens-Above · Gunter

§ Orbital elements

Epoch: 2026-05-25T02:21:19.234656Z

Period
95.64 min
Inclination
97.4528°
Eccentricity
0.0002130
Mean motion
15.05662413 rev/d
Perigee alt
548.0 km
Apogee alt
550.9 km
Semi-major
6,927.6 km
B*
3.1945e-4
RAAN
9.0329°
Arg perigee
83.6163°
Mean anomaly
276.5307°
Rev number
4,685

§ Raw data

STARLINK-347581 64945U 25158P   26145.09813929  .00004555  00000+0  31945-3 0  99912 64945  97.4528   9.0329 0002130  83.6163 276.5307 15.05662413 46857

JSON: /api/v1/satellites/64945 · /tle

For live sub-satellite position, see the globe view (requires WebGL).

§ Visibility from observer

Set your observer location to see the next 7 days of passes ≥ 10°. The values pass through the URL so the page stays shareable.

No JS? Fill the form by hand. The geolocation button needs JavaScript.